When you browse on this site, cookies collect data to enhance your experience and personalize the content and advertising you see.
Visit our Privacy Policy to learn more. By continuing to use the site, you agree to this use of cookies and data.
  • In Lithuania
  • List of Countries
  • For 7 days
  • Water Temperature
  • Weather Map
  • Weather Widgets
  • user-avatar
    Login

    Hourly Weather Cimowo

    Today, 13 November, Wednesday

    Time Temperature Precipitation Wind Pressure Humidity
    00:00 +7°C° 0.2 mm 4 mps 745 mmHg 90%
    01:00 +7°C° 0.2 mm 4 mps 745 mmHg 92%
    02:00 +7°C° 0.1 mm 4 mps 744 mmHg 91%
    03:00 +7°C° 0.1 mm 4 mps 744 mmHg 90%
    04:00 +8°C° 0.1 mm 4 mps 743 mmHg 89%
    05:00 +8°C° 0 mm 4 mps 743 mmHg 89%
    06:00 +8°C° 0 mm 4 mps 743 mmHg 90%
    07:00 +8°C° 0 mm 4 mps 743 mmHg 90%
    08:00 +8°C° 0.4 mm 4 mps 742 mmHg 89%
    09:00 +10°C° 0.4 mm 4 mps 742 mmHg 88%
    10:00 +10°C° 0.4 mm 4 mps 742 mmHg 87%
    11:00 +10°C° 0.4 mm 4 mps 742 mmHg 86%
    12:00 +10°C° 0.4 mm 5 mps 741 mmHg 84%
    13:00 +10°C° 0.4 mm 5 mps 741 mmHg 83%
    14:00 +10°C° 1 mm 5 mps 741 mmHg 84%
    15:00 +10°C° 1 mm 6 mps 740 mmHg 85%
    16:00 +11°C° 1 mm 6 mps 740 mmHg 86%
    17:00 +11°C° 0 mm 6 mps 740 mmHg 84%
    18:00 +12°C° 0 mm 5 mps 740 mmHg 82%
    19:00 +12°C° 0 mm 5 mps 741 mmHg 80%
    20:00 +11°C° 0 mm 4 mps 741 mmHg 82%
    21:00 +11°C° 0 mm 4 mps 741 mmHg 84%
    22:00 +10°C° 0 mm 3 mps 741 mmHg 86%
    23:00 +11°C° 0 mm 3 mps 741 mmHg 84%

    Tomorrow, 14 November, Thursday

    Time Temperature Precipitation Wind Pressure Humidity
    00:00 +11°C° 0 mm 4 mps 741 mmHg 82%
    01:00 +12°C° 0 mm 4 mps 740 mmHg 79%
    02:00 +12°C° 0 mm 5 mps 740 mmHg 79%
    03:00 +12°C° 0 mm 5 mps 740 mmHg 78%
    04:00 +13°C° 0 mm 6 mps 740 mmHg 78%
    05:00 +12°C° 0.1 mm 5 mps 741 mmHg 81%
    06:00 +12°C° 0.1 mm 5 mps 742 mmHg 84%
    07:00 +12°C° 0.1 mm 5 mps 742 mmHg 88%
    08:00 +11°C° 0.1 mm 4 mps 743 mmHg 87%
    09:00 +11°C° 0.1 mm 4 mps 744 mmHg 87%
    10:00 +11°C° 0.1 mm 4 mps 745 mmHg 86%
    11:00 +10°C° 0 mm 4 mps 746 mmHg 83%
    12:00 +10°C° 0 mm 3 mps 747 mmHg 80%
    13:00 +10°C° 0 mm 3 mps 747 mmHg 77%
    14:00 +9°C° 0 mm 2 mps 748 mmHg 80%
    15:00 +8°C° 0 mm 2 mps 748 mmHg 83%
    16:00 +8°C° 0 mm 1 mps 748 mmHg 86%
    17:00 +8°C° 0 mm 1 mps 749 mmHg 88%
    18:00 +8°C° 0 mm 1 mps 749 mmHg 89%
    19:00 +6°C° 0 mm 0 mps 749 mmHg 90%
    20:00 +7°C° 0 mm 1 mps 750 mmHg 91%
    21:00 +7°C° 0 mm 1 mps 750 mmHg 92%
    22:00 +7°C° 0 mm 1 mps 750 mmHg 92%
    23:00 +6°C° 0 mm 2 mps 750 mmHg 93%

    Day after tomorrow, 15 November, Friday

    Time Temperature Precipitation Wind Pressure Humidity
    00:00 +6°C° 0 mm 2 mps 750 mmHg 93%
    01:00 +6°C° 0 mm 2 mps 750 mmHg 94%
    02:00 +6°C° 0 mm 2 mps 750 mmHg 94%
    03:00 +6°C° 0 mm 2 mps 750 mmHg 95%
    04:00 +7°C° 0 mm 2 mps 750 mmHg 95%
    05:00 +7°C° 0 mm 2 mps 750 mmHg 96%
    06:00 +8°C° 0 mm 3 mps 751 mmHg 96%
    07:00 +9°C° 0 mm 3 mps 751 mmHg 97%
    08:00 +8°C° 0 mm 4 mps 750 mmHg 89%
    09:00 +10°C° 0 mm 4 mps 750 mmHg 85%
    10:00 +11°C° 0 mm 4 mps 750 mmHg 81%
    11:00 +11°C° 0 mm 4 mps 750 mmHg 79%
    12:00 +12°C° 0 mm 5 mps 750 mmHg 77%
    13:00 +12°C° 0 mm 5 mps 750 mmHg 76%
    14:00 +10°C° 0 mm 5 mps 750 mmHg 79%
    15:00 +10°C° 0 mm 5 mps 750 mmHg 81%
    16:00 +9°C° 0 mm 5 mps 750 mmHg 84%
    17:00 +9°C° 0 mm 5 mps 750 mmHg 85%
    18:00 +8°C° 0 mm 5 mps 750 mmHg 86%
    19:00 +8°C° 0 mm 5 mps 751 mmHg 87%
    20:00 +8°C° 0 mm 5 mps 751 mmHg 87%
    21:00 +7°C° 0 mm 5 mps 751 mmHg 87%
    22:00 +7°C° 0 mm 5 mps 751 mmHg 87%
    23:00 +7°C° 0 mm 5 mps 751 mmHg 86%

    16 November, Saturday

    Time Temperature Precipitation Wind Pressure Humidity
    00:00 +6°C° 0 mm 5 mps 751 mmHg 86%
    01:00 +6°C° 0 mm 5 mps 750 mmHg 85%
    02:00 +6°C° 0 mm 5 mps 750 mmHg 86%
    03:00 +6°C° 0 mm 5 mps 750 mmHg 87%
    04:00 +6°C° 0 mm 5 mps 750 mmHg 88%
    05:00 +5°C° 0 mm 5 mps 750 mmHg 89%
    06:00 +5°C° 0 mm 5 mps 750 mmHg 90%
    07:00 +5°C° 0 mm 5 mps 750 mmHg 90%
    08:00 +6°C° 0 mm 5 mps 751 mmHg 87%
    09:00 +7°C° 0 mm 5 mps 751 mmHg 84%
    10:00 +8°C° 0 mm 6 mps 751 mmHg 81%
    11:00 +9°C° 0 mm 5 mps 751 mmHg 79%
    12:00 +9°C° 0 mm 5 mps 751 mmHg 77%
    13:00 +10°C° 0 mm 5 mps 751 mmHg 75%
    14:00 +11°C° 0 mm 4 mps 751 mmHg 79%
    15:00 +10°C° 0 mm 4 mps 751 mmHg 82%
    16:00 +10°C° 0 mm 3 mps 751 mmHg 85%
    17:00 +9°C° 0 mm 3 mps 752 mmHg 87%
    18:00 +9°C° 0 mm 3 mps 752 mmHg 88%
    19:00 +9°C° 0 mm 2 mps 753 mmHg 90%
    20:00 +9°C° 0 mm 2 mps 753 mmHg 90%
    21:00 +9°C° 0 mm 2 mps 753 mmHg 91%
    22:00 +9°C° 0 mm 2 mps 754 mmHg 91%
    23:00 +9°C° 0 mm 2 mps 754 mmHg 91%

    17 November, Sunday

    Time Temperature Precipitation Wind Pressure Humidity
    00:00 +9°C° 0 mm 2 mps 754 mmHg 92%
    01:00 +8°C° 0 mm 2 mps 754 mmHg 92%
    02:00 +8°C° 0 mm 2 mps 754 mmHg 93%
    03:00 +8°C° 0 mm 2 mps 754 mmHg 94%
    04:00 +8°C° 0 mm 3 mps 754 mmHg 94%
    05:00 +8°C° 0 mm 3 mps 754 mmHg 94%
    06:00 +7°C° 0 mm 3 mps 753 mmHg 94%
    07:00 +6°C° 0 mm 4 mps 753 mmHg 94%
    08:00 +7°C° 0 mm 4 mps 753 mmHg 91%
    09:00 +7°C° 0 mm 4 mps 753 mmHg 87%
    10:00 +8°C° 0 mm 5 mps 753 mmHg 83%
    11:00 +8°C° 0 mm 5 mps 753 mmHg 80%
    12:00 +8°C° 0 mm 5 mps 752 mmHg 77%
    13:00 +8°C° 0 mm 6 mps 752 mmHg 74%
    14:00 +8°C° 0 mm 6 mps 752 mmHg 73%
    15:00 +7°C° 0 mm 6 mps 752 mmHg 71%
    16:00 +5°C° 0 mm 6 mps 751 mmHg 70%
    17:00 +6°C° 0 mm 5 mps 752 mmHg 71%
    18:00 +6°C° 0 mm 5 mps 752 mmHg 73%
    19:00 +5°C° 0 mm 5 mps 752 mmHg 74%
    20:00 +5°C° 0 mm 5 mps 752 mmHg 76%
    21:00 +5°C° 0 mm 5 mps 751 mmHg 78%
    22:00 +5°C° 0 mm 5 mps 751 mmHg 80%
    23:00 +3°C° 0 mm 5 mps 751 mmHg 82%

    18 November, Monday

    Time Temperature Precipitation Wind Pressure Humidity
    00:00 +3°C° 0 mm 5 mps 751 mmHg 84%
    01:00 +3°C° 0 mm 5 mps 751 mmHg 86%
    02:00 +3°C° 0 mm 5 mps 751 mmHg 88%
    03:00 +3°C° 0 mm 5 mps 751 mmHg 89%
    04:00 +2°C° 0 mm 5 mps 750 mmHg 90%
    05:00 +2°C° 0 mm 5 mps 750 mmHg 91%
    06:00 +2°C° 0 mm 5 mps 750 mmHg 91%
    07:00 +2°C° 0 mm 5 mps 750 mmHg 91%
    08:00 +3°C° 0 mm 5 mps 751 mmHg 88%
    09:00 +5°C° 0 mm 5 mps 751 mmHg 85%
    10:00 +5°C° 0 mm 6 mps 751 mmHg 82%
    11:00 +5°C° 0 mm 6 mps 751 mmHg 80%
    12:00 +7°C° 0 mm 6 mps 751 mmHg 78%
    13:00 +8°C° 0 mm 6 mps 750 mmHg 76%
    14:00 +7°C° 0 mm 5 mps 750 mmHg 78%
    15:00 +7°C° 0 mm 5 mps 751 mmHg 81%
    16:00 +7°C° 0 mm 5 mps 751 mmHg 84%
    17:00 +6°C° 0 mm 5 mps 751 mmHg 85%
    18:00 +6°C° 0 mm 5 mps 751 mmHg 86%
    19:00 +6°C° 0 mm 5 mps 751 mmHg 86%
    20:00 +6°C° 0 mm 5 mps 751 mmHg 87%
    21:00 +6°C° 0 mm 4 mps 751 mmHg 88%
    22:00 +6°C° 0 mm 4 mps 752 mmHg 89%
    23:00 +5°C° 0 mm 4 mps 752 mmHg 89%
    Show more